STARLINK-36753, 67694

Orbit data source: Space-Track

STARLINK-36753, 67694 is a payload satellite owned by SpaceX/Seattle (US) in SSO that was launched on Sat, 07 Feb 2026 UTC via an FALCON 9 launch vehicle from the Air Force Western Test Range (AFWTR). Payload-class satellites include a variety of spacecraft equipped with specific instruments for various scientific and technological missions. These include communications satellites like Starlink; space stations such as the ISS; scientific satellites like the Hubble; Earth observation satellites from companies like Planet Labs, Umbra, and HawkEye 360; GPS; miniature CubeSats for education and research; and military/defense satellites.

Loading next visibility...
Identifier
67694, 2026-025B
Orbit
SSO
Country
Flag of USUS
Related business
Manufacturer
SpaceX/Seattle
Mission
Operational spacecraft
Bus & Motor
STARLINK V2MO, Unknown motor
Mass
575 kg wet, ~530 kg dry
Launch date (UTC)
2026-02-07 (2 months ago)
Launch vehicle
FALCON 9
Launch site
Air Force Western Test Range (AFWTR)
Object type
Payload
Rocket body
Debris
Shape & HBR
Unknown shape, 17.7 m
Radar Cross Section
RCS unknown

Expand to show TLE details & history
Last TLE update: 1 day ago

TLE from 1 day ago
0 STARLINK-36753
1 67694U 26025B   26103.24578002  .00017788  00000-0  55181-3 0  9991
2 67694  97.2863 215.3735 0001402 118.1232 242.0152 15.33456659 11319
Epoch: 2026-04-13T05:53Z
TLE epoch observation values (Epoch: 2026-04-13T05:53:55.393Z)
Latitude
-0.00009°
Longitude
-74.54644°
Altitude
469.071 km
Speed
7.631 km/s
True Right ascension
14h 21m 29s
True Declination
0° 00' 00"
Sunlit
Object was in full shadow at epoch
Visualization orbit readout
Latitude
Unknown
Longitude
Unknown
Altitude
Unknown
Speed
Unknown
Apparent Right ascension
Unknown
Apparent Declination
Unknown
Sunlit
N/A
Visualization observer readout
Local Sidereal Time
15:10:11
Azimuth
Unknown
Elevation
Unknown
Doppler factor
Unknown
Orbital elements
Apogee altitude
463.41 km
Perigee altitude
461.492 km
Semi-major axis
6,840.588 km
Eccentricity
0.00014
Inclination
97.2863°
RAAN
215.3735°
Arg. of periapsis
118.1232°
True anomaly
242.00101°
Mean anomaly
242.0152°
Eccentric anomaly
242.00811°
Mean motion
3.83622 °/min
Orbital period
93.84 mins
BSTAR
0.00055181
Loading maneuver chart data...
Computing Atmospheric mass density...
Loading historical data...
Loading historical data...
Loading historical data...
Loading historical data...
Loading historical data...
Loading historical data...
Loading historical data...

Documentation

Showing up to 5 results
|